QPF
0.00 0.00 0.00 0.00 0.00 0.00 0.00 0.00 0.00 0.00 0.00 0.00 0.00 0.00 0.00 0.00 0.00 0.00 0.00 0.00 0.00 0.00 0.00 0.00 0.00 0.00 0.00 0.00 0.00 0.00 0.00 0.00 0.00 0.00 0.00 0.00 0.00 0.00 0.00 0.00 0.00 0.00 0.00
0.00 0.00 0.00 0.00 0.00 0.00 0.00 0.00 0.00 0.00 0.00 0.00 0.00 0.00 0.00 0.00 0.00 0.00 0.00 0.00 0.00 0.00 0.00 0.00 0.00 0.00 0.00 0.00 0.00 0.00 0.00 0.00 0.00 0.00 0.00 0.00 0.00 0.00 0.00 0.00 0.00 0.00 0.00
0.00 0.00 0.00 0.00 0.00 0.00 0.00 0.00 0.00 0.00 0.00 0.00 0.00 0.00 0.00 0.00 0.00 0.00 0.00 0.00 0.00 0.00 0.00 0.00 0.00 0.00 0.00 0.00 0.00 0.00 0.00 0.00 0.00 0.00 0.00 0.00 0.00 0.00 0.00 0.00 0.00 0.00 0.00
0.00 0.00 0.00 0.00 0.00 0.00 0.00 0.00 0.00 0.00 0.00 0.00 0.00 0.00 0.00 0.00 0.00 0.00 0.00 0.00 0.00 0.00 0.00 0.00 0.00 0.00 0.00 0.00 0.00 0.00 0.00 0.00 0.00 0.00 0.00 0.00 0.00 0.00 0.00 0.00 0.00 0.00 0.00
0.00 0.00 0.00 0.00 0.00 0.00 0.00 0.00 0.00 0.00 0.00 0.00 0.00 0.00 0.00 0.00 0.00 0.00 0.00 0.00 0.00 0.00 0.00 0.00 0.00 0.00 0.00 0.00 0.00 0.00 0.00 0.00 0.00 0.00 0.00 0.00 0.00 0.00 0.00 0.00 0.00 0.00 0.00
0.00 0.00 0.00 0.00 0.00 0.00 0.00 0.00 0.00 0.00 0.00 0.00 0.00 0.00 0.00 0.00 0.00 0.00 0.00 0.00 0.00 0.00 0.00 0.00 0.00 0.00 0.00 0.00 0.00 0.00 0.00 0.00 0.00 0.00 0.00 0.00 0.00 0.00 0.00 0.00 0.00 0.00 0.00
0.01 0.00 0.00 0.00 0.00 0.00 0.00 0.00 0.00 0.00 0.00 0.00 0.00 0.00 0.00 0.00 0.00 0.00 0.00 0.00 0.00 0.00 0.00 0.00 0.00 0.00 0.00 0.00 0.00 0.00 0.00 0.00 0.00 0.00 0.00 0.00 0.00 0.00 0.00 0.00 0.00 0.00 0.00
0.02 0.00 0.00 0.00 0.00 0.00 0.00 0.00 0.00 0.00 0.00 0.00 0.00 0.00 0.00 0.00 0.00 0.00 0.00 0.00 0.00 0.00 0.00 0.00 0.00 0.00 0.00 0.00 0.00 0.00 0.00 0.00 0.00 0.00 0.00 0.00 0.00 0.00 0.00 0.00 0.00 0.00 0.00
0.00 0.00 0.00 0.00 0.00 0.00 0.00 0.00 0.00 0.00 0.00 0.00 0.00 0.00 0.00 0.00 0.00 0.00 0.00 0.00 0.00 0.00 0.00 0.00 0.00 0.00 0.00 0.00 0.00 0.00 0.00 0.00 0.00 0.00 0.00 0.00 0.00 0.00 0.00 0.00 0.00 0.00 0.00
0.03 0.07 0.04 0.00 0.00 0.00 0.00 0.00 0.00 0.00 0.00 0.00 0.00 0.00 0.00 0.00 0.00 0.00 0.00 0.00 0.00 0.00 0.00 0.00 0.00 0.00 0.00 0.00 0.00 0.00 0.00 0.00 0.00 0.00 0.00 0.00 0.00 0.00 0.00 0.00 0.00 0.00 0.00
0.01 0.03 0.02 0.00 0.00 0.00 0.00 0.00 0.00 0.00 0.00 0.00 0.00 0.00 0.00 0.00 0.00 0.00 0.00 0.00 0.00 0.00 0.00 0.00 0.00 0.00 0.00 0.00 0.00 0.00 0.00 0.00 0.00 0.00 0.00 0.00 0.00 0.00 0.00 0.00 0.00 0.00 0.00
0.02 0.05 0.03 0.02 0.01 0.00 0.00 0.00 0.00 0.00 0.00 0.00 0.00 0.00 0.00 0.00 0.00 0.00 0.00 0.00 0.00 0.00 0.00 0.00 0.00 0.00 0.00 0.00 0.00 0.00 0.00 0.00 0.00 0.00 0.00 0.00 0.00 0.00 0.00 0.00 0.00 0.00 0.01
0.09 0.05 0.03 0.01 0.05 0.05 0.00 0.00 0.00 0.00 0.00 0.00 0.00 0.00 0.00 0.00 0.00 0.00 0.00 0.00 0.00 0.00 0.00 0.00 0.00 0.00 0.00 0.00 0.00 0.00 0.00 0.00 0.00 0.00 0.00 0.00 0.00 0.00 0.00 0.00 0.00 0.00 0.00
0.13 0.09 0.07 0.01 0.00 0.03 0.02 0.00 0.00 0.00 0.00 0.00 0.00 0.00 0.00 0.00 0.00 0.00 0.00 0.00 0.00 0.00 0.00 0.00 0.00 0.00 0.00 0.00 0.00 0.00 0.00 0.00 0.00 0.00 0.00 0.00 0.00 0.00 0.00 0.00 0.00 0.00 0.00
0.02 0.07 0.08 0.05 0.02 0.01 0.01 0.00 0.00 0.00 0.00 0.00 0.00 0.00 0.00 0.00 0.00 0.00 0.00 0.00 0.00 0.00 0.01 0.01 0.00 0.00 0.00 0.00 0.00 0.00 0.00 0.00 0.00 0.00 0.00 0.00 0.00 0.00 0.00 0.00 0.00 0.00 0.00
0.00 0.02 0.06 0.05 0.05 0.02 0.00 0.00 0.00 0.00 0.00 0.00 0.00 0.00 0.00 0.00 0.00 0.00 0.00 0.00 0.00 0.01 0.10 0.02 0.00 0.00 0.00 0.00 0.00 0.00 0.00 0.00 0.00 0.00 0.00 0.00 0.00 0.00 0.00 0.00 0.00 0.00 0.00
0.01 0.01 0.03 0.03 0.04 0.02 0.01 0.00 0.00 0.00 0.00 0.00 0.00 0.00 0.00 0.00 0.00 0.00 0.00 0.01 0.00 0.06 0.06 0.01 0.00 0.00 0.00 0.00 0.00 0.00 0.00 0.00 0.00 0.00 0.00 0.00 0.00 0.00 0.00 0.00 0.00 0.00 0.00
0.00 0.01 0.01 0.02 0.03 0.02 0.03 0.02 0.00 0.00 0.01 0.01 0.00 0.00 0.00 0.00 0.00 0.00 0.01 0.03 0.00 0.03 0.02 0.00 0.01 0.01 0.02 0.01 0.01 0.01 0.00 0.00 0.00 0.00 0.00 0.00 0.00 0.00 0.00 0.00 0.00 0.00 0.00
0.00 0.00 0.00 0.02 0.05 0.06 0.11 0.16 0.07 0.01 0.00 0.00 0.01 0.02 0.02 0.02 0.00 0.00 0.00 0.01 0.03 0.03 0.03 0.04 0.09 0.17 0.24 0.23 0.20 0.15 0.13 0.12 0.10 0.04 0.02 0.01 0.01 0.00 0.00 0.00 0.00 0.00 0.00
0.00 0.00 0.00 0.00 0.00 0.03 0.07 0.13 0.16 0.05 0.08 0.02 0.01 0.02 0.05 0.06 0.01 0.02 0.02 0.04 0.06 0.11 0.13 0.13 0.23 0.33 0.55 0.56 0.61 0.62 0.62 0.75 0.66 0.32 0.13 0.03 0.02 0.02 0.00 0.00 0.00 0.00 0.00
0.00 0.01 0.02 0.00 0.00 0.00 0.04 0.08 0.13 0.12 0.05 0.04 0.15 0.09 0.14 0.16 0.09 0.06 0.05 0.03 0.04 0.12 0.16 0.21 0.26 0.38 0.97 1.43 1.43 1.47 1.44 1.56 1.08 0.64 0.31 0.18 0.11 0.03 0.00 0.00 0.00 0.00 0.00
0.01 0.02 0.01 0.02 0.09 0.12 0.03 0.04 0.05 0.12 0.14 0.12 0.22 0.38 0.50 0.38 0.25 0.13 0.09 0.08 0.03 0.03 0.08 0.09 0.06 0.04 0.09 0.34 0.51 0.40 0.42 0.55 0.62 0.54 0.28 0.13 0.07 0.01 0.00 0.00 0.00 0.00 0.00
0.02 0.05 0.05 0.10 0.47 0.73 0.83 0.58 0.37 0.20 0.21 0.18 0.19 0.24 0.21 0.19 0.20 0.16 0.10 0.05 0.02 0.01 0.01 0.01 0.04 0.02 0.00 0.02 0.03 0.04 0.06 0.08 0.08 0.10 0.06 0.03 0.02 0.00 0.00 0.00 0.00 0.00 0.00
0.02 0.14 0.51 0.36 0.14 0.13 0.23 0.70 1.13 0.91 0.52 0.35 0.24 0.41 0.67 0.48 0.31 0.27 0.25 0.11 0.03 0.01 0.01 0.01 0.01 0.02 0.03 0.04 0.03 0.02 0.04 0.04 0.03 0.03 0.02 0.01 0.00 0.00 0.00 0.01 0.00 0.00 0.00
0.03 0.02 0.21 0.68 0.79 0.51 0.40 0.45 0.35 0.30 0.31 0.32 0.32 0.30 0.37 0.47 0.51 0.45 0.34 0.28 0.20 0.12 0.07 0.02 0.02 0.03 0.05 0.05 0.05 0.04 0.03 0.02 0.02 0.03 0.02 0.01 0.01 0.01 0.00 0.00 0.00 0.00 0.00
0.01 0.03 0.04 0.07 0.26 0.38 0.25 0.28 0.52 0.48 0.40 0.31 0.24 0.16 0.27 0.45 0.48 0.36 0.30 0.27 0.28 0.28 0.17 0.07 0.04 0.03 0.03 0.04 0.03 0.03 0.01 0.00 0.00 0.00 0.00 0.00 0.00 0.00 0.00 0.00 0.00 0.00 0.00
MSLP
1013.28 1014.06 1014.72 1015.29 1015.95 1016.48 1016.88 1017.07 1017.30 1017.45 1017.58 1017.82 1018.01 1018.32 1018.69 1019.02 1019.18 1019.54 1019.73 1019.85 1020.06 1020.16 1020.28 1020.42 1020.53 1020.55 1020.64 1020.75 1020.82 1020.88 1021.08 1021.34 1021.61 1021.00 1020.50 1019.78 1019.57 1019.29 1018.73 1018.49 1018.31 1017.97 1017.53
1012.08 1013.24 1014.04 1014.62 1015.34 1015.98 1016.36 1016.51 1016.79 1017.12 1017.24 1017.34 1017.62 1017.90 1018.29 1018.64 1018.90 1019.23 1019.51 1019.66 1019.88 1020.00 1019.94 1020.14 1020.18 1020.17 1020.21 1020.41 1020.63 1020.71 1020.72 1020.87 1021.16 1021.16 1020.62 1020.09 1019.61 1019.11 1018.69 1018.59 1017.87 1017.54 1017.34
1011.46 1012.40 1013.20 1013.98 1014.62 1015.10 1015.72 1016.22 1016.48 1016.76 1016.96 1017.10 1017.25 1017.42 1017.75 1018.11 1018.44 1018.81 1019.06 1019.24 1019.43 1019.54 1019.59 1019.79 1019.82 1019.95 1020.12 1020.10 1020.30 1020.50 1020.48 1020.45 1020.68 1020.90 1020.75 1020.21 1019.62 1019.16 1018.86 1018.45 1018.06 1017.57 1017.19
1010.65 1011.50 1012.42 1012.92 1013.70 1014.32 1014.98 1015.63 1016.06 1016.32 1016.52 1016.65 1016.73 1016.85 1017.15 1017.56 1017.89 1018.25 1018.54 1018.71 1018.90 1019.08 1019.21 1019.28 1019.40 1019.61 1019.76 1019.84 1019.98 1020.08 1020.13 1020.30 1020.36 1020.48 1020.44 1020.18 1019.75 1019.18 1019.08 1019.01 1018.48 1018.08 1017.31
1009.81 1010.48 1011.15 1011.96 1012.59 1013.42 1014.04 1014.74 1015.32 1015.72 1015.96 1016.16 1016.37 1016.40 1016.57 1016.95 1017.28 1017.65 1017.91 1018.12 1018.33 1018.48 1018.55 1018.64 1018.75 1018.85 1019.02 1019.17 1019.45 1019.52 1019.66 1019.82 1019.84 1019.91 1019.96 1019.83 1019.59 1019.32 1019.22 1018.75 1018.73 1018.27 1017.34
1009.11 1009.77 1010.37 1011.08 1011.74 1012.28 1013.07 1013.79 1014.44 1014.77 1015.23 1015.55 1015.72 1015.91 1016.10 1016.28 1016.53 1016.88 1017.19 1017.51 1017.66 1017.77 1017.93 1018.01 1018.06 1018.21 1018.30 1018.49 1018.64 1018.76 1018.87 1019.18 1019.19 1019.41 1019.37 1019.36 1019.00 1018.82 1018.65 1018.57 1018.34 1018.26 1017.67
1008.46 1009.05 1009.74 1010.22 1010.89 1011.44 1012.15 1012.96 1013.36 1013.76 1014.34 1014.60 1014.92 1015.25 1015.40 1015.61 1015.83 1016.18 1016.50 1016.82 1016.97 1016.98 1017.01 1017.16 1017.38 1017.46 1017.60 1017.77 1017.84 1017.95 1018.10 1018.12 1018.10 1018.26 1018.51 1018.39 1018.27 1017.88 1017.91 1017.99 1017.98 1017.92 1017.52
1008.26 1008.47 1008.79 1009.32 1009.95 1010.46 1011.16 1011.80 1012.47 1012.99 1013.24 1013.56 1013.91 1014.18 1014.50 1014.76 1015.08 1015.40 1015.77 1016.16 1016.25 1016.14 1016.17 1016.32 1016.50 1016.60 1016.77 1017.00 1017.24 1017.36 1017.31 1017.16 1017.06 1017.37 1017.48 1017.05 1017.07 1016.74 1017.00 1017.00 1017.12 1017.33 1017.00
1008.45 1008.36 1008.42 1008.65 1009.21 1009.65 1010.02 1010.59 1011.22 1011.98 1012.34 1012.48 1012.72 1013.17 1013.35 1013.59 1014.09 1014.61 1015.12 1015.49 1015.44 1015.34 1015.39 1015.54 1015.71 1015.85 1015.94 1016.27 1016.70 1016.90 1016.68 1016.27 1015.88 1016.17 1016.17 1016.08 1016.10 1016.19 1016.31 1016.79 1016.79 1016.98 1016.67
1008.73 1008.56 1008.29 1008.31 1008.34 1008.49 1008.77 1009.33 1009.90 1010.48 1011.10 1011.58 1011.70 1011.91 1012.30 1012.56 1012.94 1013.48 1014.12 1014.54 1014.61 1014.61 1014.69 1014.68 1014.76 1014.94 1015.16 1015.46 1015.90 1016.00 1015.93 1015.50 1015.52 1015.44 1015.71 1015.74 1015.72 1015.51 1015.67 1016.16 1016.16 1016.36 1016.18
1007.96 1008.10 1008.04 1007.64 1007.14 1007.03 1007.68 1008.19 1008.84 1009.41 1010.04 1010.44 1010.63 1010.76 1011.05 1011.40 1011.72 1012.25 1012.79 1013.35 1013.50 1013.64 1013.63 1013.64 1013.69 1013.83 1014.14 1014.39 1014.66 1014.90 1014.63 1014.64 1014.68 1014.95 1015.13 1015.16 1014.95 1014.90 1014.79 1014.78 1015.01 1015.33 1015.32
1009.15 1008.57 1007.73 1006.59 1006.02 1006.14 1006.43 1007.12 1007.69 1008.38 1008.99 1009.32 1009.58 1009.68 1009.67 1010.10 1010.63 1011.06 1011.55 1012.05 1012.21 1012.36 1012.23 1012.41 1012.61 1012.91 1013.22 1013.53 1014.03 1014.02 1014.12 1014.20 1014.48 1014.67 1014.71 1014.60 1014.54 1014.42 1014.13 1014.06 1013.90 1013.95 1013.87
1009.08 1008.03 1007.43 1006.72 1005.95 1005.88 1005.61 1005.98 1006.68 1007.29 1007.80 1008.18 1008.34 1008.33 1008.40 1008.97 1009.38 1009.82 1010.24 1010.75 1011.09 1011.42 1011.22 1011.36 1011.62 1011.96 1012.28 1012.78 1013.18 1013.34 1013.50 1014.30 1014.46 1014.54 1014.18 1013.80 1013.52 1013.36 1013.42 1013.50 1013.24 1013.28 1013.22
1008.46 1007.59 1007.43 1006.64 1005.59 1005.07 1005.00 1005.10 1005.54 1005.97 1006.48 1006.81 1007.04 1007.11 1007.33 1007.82 1008.10 1008.41 1009.36 1010.06 1010.30 1010.72 1010.68 1010.78 1011.07 1011.46 1011.68 1011.87 1012.28 1012.48 1013.00 1013.34 1013.50 1013.41 1013.12 1012.88 1012.96 1013.12 1013.17 1013.13 1013.16 1013.24 1013.28
1007.94 1007.24 1007.01 1006.63 1005.17 1004.03 1003.87 1003.98 1004.29 1004.33 1004.83 1005.13 1005.34 1005.94 1006.30 1006.42 1006.58 1007.27 1007.77 1008.49 1009.02 1009.34 1009.86 1010.56 1011.17 1011.27 1011.47 1011.71 1011.84 1011.76 1011.75 1012.04 1012.31 1012.34 1012.71 1012.96 1012.83 1012.70 1012.68 1012.76 1012.82 1012.86 1013.14
1010.94 1010.27 1008.87 1007.64 1005.98 1004.14 1003.46 1004.00 1004.26 1004.06 1003.96 1003.97 1004.24 1004.49 1004.72 1004.88 1005.59 1006.13 1006.57 1007.09 1007.68 1008.26 1009.61 1009.92 1010.06 1010.22 1010.64 1010.67 1010.72 1010.96 1011.06 1011.13 1011.14 1011.42 1011.62 1011.51 1011.98 1012.32 1012.31 1012.26 1012.26 1012.46 1012.83
1010.46 1009.62 1009.02 1007.95 1006.54 1004.45 1003.01 1003.03 1003.78 1004.48 1004.16 1003.81 1003.86 1003.90 1004.02 1004.32 1005.02 1005.32 1005.70 1006.17 1006.82 1008.06 1008.50 1008.84 1008.86 1009.24 1009.21 1009.47 1009.61 1009.66 1009.50 1009.44 1009.79 1010.12 1010.49 1010.76 1010.82 1011.01 1011.34 1011.63 1012.05 1012.18 1012.46
1010.13 1009.00 1007.85 1007.04 1005.96 1004.68 1003.17 1002.33 1002.47 1002.99 1003.42 1003.82 1003.84 1003.78 1003.65 1003.92 1004.25 1004.58 1005.39 1006.73 1007.45 1007.82 1007.79 1007.68 1007.99 1007.87 1008.14 1008.32 1008.52 1008.58 1008.58 1008.82 1009.00 1009.17 1009.45 1009.96 1010.31 1010.51 1010.96 1011.16 1011.38 1011.84 1012.34
1009.20 1008.54 1007.63 1006.79 1005.90 1004.77 1003.59 1002.38 1001.79 1001.78 1002.32 1002.56 1003.38 1003.58 1003.61 1004.14 1004.48 1004.76 1005.52 1005.66 1006.08 1006.44 1006.66 1006.70 1006.92 1007.38 1007.73 1008.13 1008.44 1008.50 1008.45 1008.52 1008.51 1008.28 1008.50 1008.62 1009.13 1009.92 1010.41 1010.72 1010.93 1011.22 1011.62
1008.76 1007.80 1007.06 1006.30 1005.20 1003.86 1002.85 1001.71 1001.21 1001.20 1001.42 1001.96 1002.38 1002.51 1003.27 1004.08 1004.72 1004.81 1005.23 1005.52 1005.38 1005.54 1005.82 1006.21 1006.47 1006.74 1007.18 1007.43 1007.62 1007.48 1008.16 1008.66 1009.78 1008.19 1007.92 1007.68 1008.32 1009.10 1009.86 1010.09 1010.56 1010.99 1011.42
1007.47 1006.96 1006.49 1005.37 1003.86 1002.62 1001.82 1001.10 1000.48 1000.25 1000.35 1000.93 1001.56 1002.21 1002.82 1002.75 1003.48 1004.22 1004.89 1005.18 1005.26 1005.38 1005.54 1005.78 1005.98 1006.37 1006.68 1006.76 1006.38 1005.95 1006.97 1006.42 1008.10 1009.78 1005.13 1008.02 1008.21 1008.79 1009.36 1010.03 1010.50 1011.00 1011.12
1007.33 1007.21 1006.64 1005.45 1003.97 1002.54 1001.69 1000.77 999.96 999.47 999.41 1000.24 1001.42 1002.31 1002.87 1003.47 1003.78 1004.54 1005.32 1005.77 1005.71 1005.78 1005.95 1006.41 1006.83 1007.34 1007.71 1007.59 1006.76 1005.98 1005.91 1007.55 1009.64 1007.42 1006.60 1008.39 1008.64 1008.75 1009.30 1009.91 1010.39 1010.67 1010.69
1007.45 1008.32 1007.19 1006.00 1005.13 1003.88 1002.22 1001.15 1000.71 999.75 999.50 1000.41 1001.72 1002.71 1003.12 1003.60 1004.20 1004.96 1005.64 1006.75 1007.13 1007.67 1007.43 1007.50 1008.11 1008.28 1008.77 1008.85 1008.39 1007.54 1007.43 1008.04 1008.68 1008.48 1008.40 1008.47 1008.79 1009.06 1009.52 1010.20 1010.34 1010.38 1010.61
1007.90 1008.99 1008.02 1006.66 1006.36 1005.51 1004.04 1003.19 1002.58 1001.49 998.51 1000.93 1002.15 1002.99 1004.11 1004.70 1005.18 1005.45 1006.73 1008.04 1007.63 1008.19 1008.56 1008.85 1009.86 1009.81 1009.89 1010.20 1010.30 1010.00 1009.57 1009.65 1009.38 1009.21 1009.40 1009.37 1009.16 1009.40 1010.10 1010.20 1009.99 1010.31 1010.57
1009.16 1009.29 1008.57 1008.20 1007.10 1006.53 1005.97 1004.92 1004.68 1004.14 1004.08 1004.02 1004.77 1004.33 1005.14 1005.38 1006.79 1007.31 1008.14 1008.78 1007.95 1009.57 1010.60 1009.78 1010.60 1010.99 1011.31 1010.98 1010.80 1010.66 1010.88 1010.59 1010.26 1010.31 1010.13 1009.69 1010.15 1010.22 1010.30 1010.41 1010.05 1010.25 1010.72
1009.95 1010.15 1009.72 1008.72 1008.27 1008.17 1007.04 1006.89 1006.24 1006.57 1006.44 1006.35 1007.40 1006.38 1007.16 1006.50 1007.91 1009.05 1009.27 1009.49 1009.66 1010.71 1011.85 1012.27 1011.56 1012.24 1012.52 1012.54 1012.21 1011.84 1011.42 1010.83 1010.63 1010.57 1010.22 1010.27 1010.64 1010.86 1010.79 1010.52 1010.71 1011.04 1011.21
Thickness
5802 5798 5797 5798 5797 5796 5796 5797 5798 5800 5801 5801 5802 5801 5798 5796 5796 5794 5793 5793 5791 5790 5790 5789 5789 5790 5790 5790 5791 5790 5786 5784 5777 5786 5793 5799 5801 5803 5807 5808 5809 5810 5812
5807 5800 5797 5797 5797 5795 5796 5798 5800 5799 5800 5802 5803 5803 5801 5800 5799 5796 5794 5794 5792 5792 5792 5791 5791 5793 5793 5793 5791 5791 5791 5789 5785 5782 5790 5796 5799 5805 5807 5808 5812 5812 5812
5808 5801 5799 5798 5797 5798 5796 5795 5798 5799 5799 5801 5803 5804 5803 5802 5800 5799 5798 5796 5795 5794 5795 5793 5793 5792 5791 5793 5792 5791 5792 5793 5791 5787 5787 5795 5800 5803 5804 5808 5810 5812 5813
5812 5803 5796 5800 5799 5799 5797 5795 5794 5797 5800 5800 5802 5805 5805 5804 5803 5801 5799 5798 5797 5796 5795 5795 5794 5793 5791 5792 5792 5792 5793 5791 5792 5790 5789 5791 5796 5802 5802 5799 5801 5807 5811
5813 5809 5803 5800 5801 5799 5798 5796 5796 5796 5799 5801 5800 5804 5805 5805 5805 5802 5801 5799 5797 5797 5797 5797 5797 5797 5797 5796 5794 5794 5794 5792 5792 5791 5790 5792 5793 5795 5795 5801 5798 5803 5809
5811 5808 5806 5802 5801 5801 5799 5797 5796 5797 5797 5799 5802 5802 5803 5805 5805 5803 5803 5800 5799 5798 5797 5798 5798 5799 5798 5798 5798 5798 5798 5793 5792 5790 5791 5791 5794 5797 5800 5800 5800 5797 5796
5808 5809 5806 5803 5799 5800 5798 5795 5797 5798 5798 5800 5801 5802 5804 5805 5805 5804 5803 5802 5801 5802 5802 5801 5799 5801 5800 5800 5800 5799 5798 5799 5800 5799 5794 5794 5795 5802 5802 5799 5799 5797 5798
5803 5806 5811 5808 5801 5800 5798 5796 5795 5797 5799 5800 5801 5803 5804 5806 5805 5804 5802 5802 5802 5805 5806 5804 5803 5803 5803 5801 5799 5798 5799 5801 5801 5800 5801 5805 5805 5809 5806 5806 5804 5801 5803
5795 5802 5808 5808 5803 5803 5802 5798 5797 5795 5798 5801 5803 5802 5806 5808 5806 5803 5800 5801 5803 5806 5807 5807 5806 5805 5805 5802 5798 5796 5798 5802 5805 5806 5808 5809 5809 5808 5807 5805 5802 5798 5798
5784 5790 5800 5801 5801 5806 5808 5804 5801 5800 5799 5799 5803 5807 5807 5809 5809 5805 5801 5803 5803 5805 5807 5809 5808 5809 5806 5803 5800 5799 5797 5802 5801 5804 5806 5807 5808 5808 5809 5806 5805 5798 5798
5782 5786 5794 5798 5803 5813 5811 5809 5803 5802 5800 5801 5804 5808 5810 5812 5813 5808 5805 5806 5806 5805 5807 5810 5813 5811 5808 5807 5806 5807 5807 5807 5806 5803 5804 5805 5808 5809 5810 5810 5808 5805 5801
5761 5767 5786 5799 5806 5811 5814 5812 5807 5803 5800 5802 5803 5807 5814 5815 5812 5810 5808 5806 5811 5810 5812 5813 5814 5812 5809 5807 5804 5806 5805 5803 5802 5800 5800 5802 5803 5806 5809 5810 5811 5810 5811
5753 5769 5781 5788 5801 5805 5813 5816 5810 5805 5803 5804 5805 5809 5813 5814 5815 5812 5810 5808 5808 5810 5816 5815 5812 5810 5808 5805 5803 5803 5800 5795 5794 5793 5797 5803 5807 5810 5809 5808 5809 5809 5807
5744 5761 5769 5781 5796 5803 5811 5814 5812 5810 5808 5809 5810 5811 5813 5813 5816 5818 5811 5806 5806 5806 5810 5811 5807 5804 5805 5807 5803 5802 5799 5796 5795 5796 5800 5804 5806 5804 5803 5805 5803 5802 5798
5745 5759 5765 5771 5788 5802 5808 5812 5815 5819 5817 5817 5819 5814 5811 5813 5819 5816 5815 5811 5809 5809 5803 5797 5793 5795 5796 5796 5797 5800 5800 5799 5798 5799 5796 5794 5797 5799 5800 5801 5800 5797 5791
5704 5718 5739 5751 5767 5790 5802 5802 5803 5810 5813 5819 5820 5822 5823 5824 5818 5815 5814 5812 5808 5803 5790 5792 5795 5797 5793 5796 5797 5796 5797 5797 5800 5798 5798 5801 5797 5794 5794 5796 5796 5791 5785
5695 5711 5720 5734 5752 5776 5792 5799 5800 5799 5802 5809 5810 5814 5818 5821 5813 5812 5810 5807 5802 5791 5793 5794 5797 5794 5797 5796 5796 5798 5800 5803 5801 5801 5800 5799 5800 5799 5795 5791 5786 5784 5780
5687 5702 5719 5731 5745 5762 5781 5793 5799 5799 5800 5804 5803 5807 5811 5810 5810 5809 5802 5793 5791 5786 5790 5794 5792 5797 5795 5795 5794 5795 5795 5795 5797 5798 5799 5796 5793 5791 5787 5785 5783 5778 5772
5680 5693 5707 5721 5733 5747 5762 5779 5789 5794 5796 5800 5796 5798 5801 5798 5797 5796 5791 5798 5792 5787 5787 5789 5789 5786 5786 5783 5781 5780 5779 5780 5784 5790 5792 5794 5789 5785 5780 5776 5775 5771 5768
5674 5691 5704 5715 5727 5742 5756 5771 5781 5785 5788 5788 5791 5797 5792 5789 5789 5793 5790 5787 5789 5787 5782 5779 5779 5780 5779 5779 5780 5780 5771 5763 5749 5768 5774 5780 5780 5777 5770 5769 5766 5762 5757
5675 5689 5700 5713 5728 5742 5752 5762 5772 5780 5784 5784 5782 5783 5781 5788 5786 5781 5779 5776 5776 5777 5776 5772 5772 5774 5774 5774 5776 5778 5766 5764 5713 5682 5764 5748 5759 5758 5760 5759 5754 5750 5748
5659 5665 5680 5696 5715 5731 5741 5753 5763 5772 5777 5774 5769 5762 5762 5765 5766 5763 5759 5756 5758 5760 5759 5753 5753 5751 5751 5753 5762 5766 5765 5740 5713 5735 5730 5734 5741 5748 5748 5746 5742 5739 5737
5641 5640 5659 5676 5691 5706 5724 5736 5740 5752 5754 5751 5747 5742 5745 5748 5747 5743 5739 5729 5730 5728 5731 5730 5726 5728 5728 5728 5735 5741 5744 5738 5728 5730 5730 5731 5733 5736 5735 5731 5730 5726 5722
5620 5618 5639 5659 5664 5675 5690 5700 5710 5720 5724 5714 5722 5727 5721 5718 5719 5721 5712 5703 5708 5709 5707 5707 5698 5702 5703 5705 5705 5709 5710 5712 5714 5715 5713 5715 5721 5721 5716 5714 5715 5712 5711
5593 5602 5620 5630 5645 5654 5657 5669 5673 5681 5684 5687 5684 5697 5699 5699 5690 5686 5682 5679 5690 5679 5671 5684 5679 5679 5679 5684 5688 5691 5688 5692 5692 5692 5693 5698 5697 5699 5699 5698 5702 5701 5697
5573 5582 5594 5611 5622 5619 5618 5629 5648 5648 5649 5657 5652 5665 5661 5673 5663 5656 5657 5651 5658 5648 5637 5640 5656 5655 5655 5656 5662 5667 5671 5677 5679 5680 5682 5684 5681 5678 5678 5681 5679 5676 5676